Simultaneous Nadir Overpasses (SNOs) Predictions

Prediction of SNOs between GOES-16 and METOP-C Satellite Orbit:

Table of predicted SNOs for the next 14.0 days since TLE Epoch: 4/24/2023
Index Date Time (GOES-16) GOES-16 Lat,Lon METOP-C Lat,Lon Distance(km) Time Diff (sec)
1 04/26/2023 02:32:58 -0.05, -75.19 -0.08, -75.29 11.85 80
2 04/28/2023 14:31:10 0.04, -75.19 -0.04, -74.87 37.47 80
3 04/30/2023 02:50:10 -0.04, -75.20 -1.00, -79.46 485.33 80
4 05/01/2023 02:26:50 -0.04, -75.21 0.12, -74.47 84.51 80
5 05/02/2023 14:45:41 0.04, -75.22 0.92, -79.03 433.99 80
6 05/03/2023 14:27:42 0.04, -75.23 -0.21, -74.03 136.35 80
7 05/05/2023 02:46:42 -0.04, -75.25 -0.77, -78.64 385.42 80
8 05/06/2023 02:23:22 -0.04, -75.26 0.30, -73.63 184.93 80
9 05/07/2023 14:42:13 0.03, -75.28 0.70, -78.20 333.16 80
